TimeEET,TemperatureF,Dew PointF,Humidity,Sea Level PressureIn,VisibilityMPH,Wind Direction,Wind SpeedMPH,Gust SpeedMPH,PrecipitationIn,Events,Conditions,WindDirDegrees,DateUTC
12:50 AM,41.0,32.0,70,29.92,6.2,Calm,Calm,-,N/A,,Mostly Cloudy,0,2013-01-23 22:50:00
1:50 AM,41.0,33.8,76,29.89,6.2,West,6.9,-,N/A,,Mostly Cloudy,260,2013-01-23 23:50:00
2:50 AM,42.8,35.6,76,29.86,6.2,WNW,4.6,-,N/A,,Mostly Cloudy,290,2013-01-24 00:50:00
3:50 AM,42.8,35.6,76,29.86,6.2,West,5.8,-,N/A,,Scattered Clouds,270,2013-01-24 01:50:00
4:50 AM,44.6,35.6,71,29.83,6.2,West,4.6,-,N/A,,Scattered Clouds,270,2013-01-24 02:50:00
5:50 AM,42.8,35.6,76,29.80,6.2,West,4.6,-,N/A,,Scattered Clouds,260,2013-01-24 03:50:00
6:20 AM,41.0,35.6,81,29.80,6.2,West,4.6,-,N/A,,Scattered Clouds,260,2013-01-24 04:20:00
6:50 AM,39.2,33.8,81,29.77,6.2,Calm,Calm,-,N/A,,Scattered Clouds,0,2013-01-24 04:50:00
7:20 AM,37.4,33.8,87,29.77,6.2,Calm,Calm,-,N/A,,Partly Cloudy,0,2013-01-24 05:20:00
7:50 AM,37.4,33.8,87,29.77,6.2,Calm,Calm,-,N/A,,Partly Cloudy,0,2013-01-24 05:50:00
8:20 AM,42.8,33.8,70,29.77,6.2,East,6.9,-,N/A,,Partly Cloudy,80,2013-01-24 06:20:00
8:50 AM,51.8,42.8,71,29.74,6.2,Calm,Calm,-,N/A,,Scattered Clouds,0,2013-01-24 06:50:00
9:20 AM,55.4,42.8,63,29.71,6.2,SE,12.7,-,N/A,,Partly Cloudy,130,2013-01-24 07:20:00
9:50 AM,57.2,44.6,63,29.71,6.2,ESE,13.8,-,N/A,,Partly Cloudy,110,2013-01-24 07:50:00
10:20 AM,59.0,44.6,59,29.68,6.2,ESE,11.5,-,N/A,,Scattered Clouds,110,2013-01-24 08:20:00
10:50 AM,60.8,44.6,55,29.68,6.2,SE,15.0,-,N/A,,Scattered Clouds,130,2013-01-24 08:50:00
11:20 AM,60.8,44.6,55,29.65,6.2,SE,15.0,-,N/A,,Scattered Clouds,130,2013-01-24 09:20:00
11:50 AM,60.8,44.6,55,29.62,6.2,SE,16.1,-,N/A,,Scattered Clouds,130,2013-01-24 09:50:00
12:20 PM,60.8,44.6,55,29.62,6.2,SE,15.0,-,N/A,,Mostly Cloudy,130,2013-01-24 10:20:00
12:50 PM,60.8,41.0,48,29.62,6.2,SSE,13.8,-,N/A,,Overcast,150,2013-01-24 10:50:00
1:20 PM,53.6,41.0,62,29.65,5.0,SW,13.8,26.5,N/A,Rain,Light Rain,220,2013-01-24 11:20:00
1:50 PM,48.2,44.6,87,29.65,2.5,West,17.3,-,N/A,Rain,Rain,270,2013-01-24 11:50:00
2:20 PM,50.0,44.6,82,29.62,5.0,WSW,9.2,-,N/A,Rain,Light Rain,250,2013-01-24 12:20:00
2:50 PM,55.4,46.4,72,29.59,6.2,SE,11.5,-,N/A,,Scattered Clouds,130,2013-01-24 12:50:00
3:20 PM,57.2,46.4,67,29.59,6.2,East,6.9,-,N/A,,Scattered Clouds,90,2013-01-24 13:20:00
3:50 PM,50.0,44.6,82,29.62,6.2,WNW,17.3,31.1,N/A,,Mostly Cloudy,300,2013-01-24 13:50:00
4:20 PM,50.0,44.6,82,29.62,5.0,West,21.9,34.5,N/A,Rain,Light Rain,280,2013-01-24 14:20:00
4:50 PM,50.0,39.2,66,29.62,5.0,West,23.0,-,N/A,Rain,Light Rain,260,2013-01-24 14:50:00
5:20 PM,50.0,39.2,66,29.59,6.2,WSW,16.1,-,N/A,,Mostly Cloudy,250,2013-01-24 15:20:00
5:50 PM,53.6,33.8,47,29.59,6.2,WSW,16.1,-,N/A,,Mostly Cloudy,250,2013-01-24 15:50:00
6:20 PM,51.8,33.8,50,29.59,6.2,NNE,5.8,-,N/A,,Mostly Cloudy,20,2013-01-24 16:20:00
6:50 PM,51.8,33.8,50,29.56,6.2,North,6.9,-,N/A,,Mostly Cloudy,350,2013-01-24 16:50:00
7:20 PM,51.8,33.8,50,29.56,6.2,WNW,4.6,-,N/A,,Mostly Cloudy,300,2013-01-24 17:20:00
7:50 PM,51.8,33.8,50,29.56,6.2,West,5.8,-,N/A,,Scattered Clouds,280,2013-01-24 17:50:00
8:50 PM,50.0,33.8,54,29.56,6.2,WNW,5.8,-,N/A,,Scattered Clouds,290,2013-01-24 18:50:00
9:50 PM,48.2,35.6,62,29.59,6.2,West,6.9,-,N/A,,Scattered Clouds,260,2013-01-24 19:50:00
10:50 PM,42.8,35.6,76,29.59,6.2,SW,4.6,-,N/A,,Partly Cloudy,230,2013-01-24 20:50:00
11:50 PM,42.8,35.6,76,29.59,6.2,WSW,6.9,-,N/A,,Mostly Cloudy,250,2013-01-24 21:50:00